Regional Weather Roundup
Issued by NWS

Home | Current Version | Previous Version | Text Only | Print | Product List | Glossary On
Versions: 1 2 3 4 5 6 7 8 9 10 11 12 13 14 15 16 17 18 19 20 21 22 23 24 25 26 27 28 29 30 31 32 33 34 35 36 37 38 39 40 41 42 43 44 45 46 47 48 49 50
000
ASUS44 KJAN 271710
RWRMS

MISSISSIPPI HOURLY WEATHER ROUNDUP
NATIONAL WEATHER SERVICE JACKSON MS
1100 AM CST MON FEB 27 2017

NOTE: "FAIR: INDICATES FEW OR NO CLOUDS BELOW 12,000 FEET WITH NO
SIGNIFICANT WEATHER AND/OR OBSTRUCTIONS TO VISIBILITY.

MSZ001>002-007>008-010>013-018>021-025>028-034>036-271800-
NORTHWEST MISSISSIPPI

CITY           SKY/WX    TMP DP  RH WIND       PRES   REMARKS
BATESVILLE     FAIR      53  47  81 SE5       30.19R
CLEVELAND      CLOUDY    52  52 100 SE10      30.16S
GREENWOOD      LGT RAIN  51  47  86 SE3       30.19R
GREENVILLE     CLOUDY    53  51  93 SE13      30.15S
OLIVE BRANCH   PTSUNNY  N/A N/A N/A S12       30.15S
OXFORD         FAIR      52  46  82 SE9       30.20R
TUNICA         CLOUDY    54  48  82 SE10      30.15F
WINONA         RAIN      49  49  98 SE6       30.20R
$$

MSZ003>006-009-014>017-022>024-029>033-037>039-271800-
NORTHEAST MISSISSIPPI

CITY           SKY/WX    TMP DP  RH WIND       PRES   REMARKS
COLUMBUS AFB   PTSUNNY   52  48  87 SE7       30.21S
CORINTH        FAIR      55  45  67 SE13G18   30.18R
GOLDN TRIANGLE CLOUDY    50  45  81 SE7       30.16F
STARKVILLE     CLOUDY    50  48  93 E6        30.20F
TUPELO         PTSUNNY   56  46  69 SE12      30.20R
$$

MSZ040-058-271800-
CENTRAL MISSISSIPPI

CITY           SKY/WX    TMP DP  RH WIND       PRES   REMARKS
JACKSON INTL   LGT RAIN  57  55  93 E6        30.19F
JACKSON HAWKNS LGT RAIN  57  55  93 SE6       30.19F
MADISON        DRIZZLE  N/A N/A N/A CALM      30.18F
MERIDIAN KEY   CLOUDY    58  57  97 CALM      30.20S
MERIDIAN NAS   NOT AVBL
VICKSBURG VKS  CLOUDY    59  55  88 E9        30.13S
$$

MSZ059>079-271800-
SOUTH MISSISSIPPI

CITY           SKY/WX    TMP DP  RH WIND       PRES   REMARKS
BROOKHAVEN     CLOUDY   N/A N/A N/A NE5       30.18R
HATTIESBURG    LGT RAIN  69  62  78 MISG      30.17R
LAUREL         CLOUDY    58  58 100 NE7       30.20S
MCCOMB         CLOUDY    70  64  81 VRB3      30.14R
NATCHEZ        CLOUDY    59  54  82 NE9       30.14F
PINE BELT      CLOUDY    57  54  88 NE10      30.19F
$$

MSZ080>082-271800-
COASTAL MISSISSIPPI

CITY           SKY/WX    TMP DP  RH WIND       PRES   REMARKS
BAY ST LOUIS   PTSUNNY   75  61  60 S12G17    30.15R
BILOXI         MOSUNNY   73  65  75 SE9       30.15S
PASCAGOULA     PTSUNNY   76  61  59 SE17      30.16S
GULFPORT       PTSUNNY   74  65  73 S13       30.15R
$$

LAZ007>009-015>016-023>026-271800-
NORTHEAST LOUISIANA

CITY           SKY/WX    TMP DP  RH WIND       PRES   REMARKS
BASTROP        TSTM      55  55  98 CALM      30.12S
TALLULAH/VBURG CLOUDY    58  55  90 E10       30.15F
VIDALIA        CLOUDY    59  57  93 NE8       30.13S
$$



USA.gov is the U.S. government's official web portal to all federal, state and local government web resources and services.